• In Czech Republic
  • List of Countries
  • For 7 days
  • Water Temperature
  • Satellite Maps
  • Weather Map
  • Weather Widgets
  • user-avatar
    Login

    Hourly Weather Giumri

    Today, 26 September, Tuesday

    Time Temperature Precipitation Wind Pressure Humidity
    00:00 +13°C° 0 mm 1 mps 636 mmHg 85%
    01:00 +13°C° 0 mm 1 mps 636 mmHg 86%
    02:00 +12°C° 0 mm 1 mps 636 mmHg 88%
    03:00 +12°C° 0 mm 1 mps 636 mmHg 88%
    04:00 +12°C° 0 mm 1 mps 636 mmHg 89%
    05:00 +11°C° 0 mm 1 mps 635 mmHg 89%
    06:00 +11°C° 0 mm 1 mps 635 mmHg 89%
    07:00 +13°C° 0 mm 1 mps 636 mmHg 80%
    08:00 +15°C° 0 mm 1 mps 636 mmHg 70%
    09:00 +17°C° 0 mm 2 mps 637 mmHg 57%
    10:00 +19°C° 0 mm 2 mps 637 mmHg 51%
    11:00 +20°C° 0 mm 2 mps 637 mmHg 44%
    12:00 +23°C° 0 mm 2 mps 637 mmHg 37%
    13:00 +23°C° 0 mm 2 mps 637 mmHg 36%
    14:00 +23°C° 0 mm 2 mps 637 mmHg 34%
    15:00 +24°C° 0 mm 2 mps 636 mmHg 33%
    16:00 +21°C° 0 mm 2 mps 636 mmHg 40%
    17:00 +19°C° 0 mm 2 mps 636 mmHg 47%
    18:00 +17°C° 0 mm 2 mps 635 mmHg 54%
    19:00 +17°C° 0 mm 2 mps 635 mmHg 61%
    20:00 +16°C° 0 mm 2 mps 635 mmHg 68%
    21:00 +15°C° 0 mm 2 mps 635 mmHg 74%
    22:00 +15°C° 0.2 mm 2 mps 635 mmHg 77%
    23:00 +15°C° 0.2 mm 2 mps 635 mmHg 80%

    Tomorrow, 27 September, Wednesday

    Time Temperature Precipitation Wind Pressure Humidity
    00:00 +14°C° 0.2 mm 2 mps 635 mmHg 83%
    01:00 +14°C° 0.1 mm 2 mps 635 mmHg 85%
    02:00 +13°C° 0.1 mm 1 mps 635 mmHg 87%
    03:00 +13°C° 0.1 mm 1 mps 634 mmHg 89%
    04:00 +13°C° 0.2 mm 1 mps 634 mmHg 89%
    05:00 +12°C° 0.2 mm 1 mps 634 mmHg 89%
    06:00 +12°C° 0.2 mm 1 mps 634 mmHg 89%
    07:00 +14°C° 0.3 mm 1 mps 634 mmHg 80%
    08:00 +15°C° 0.3 mm 1 mps 635 mmHg 72%
    09:00 +18°C° 0.3 mm 1 mps 635 mmHg 63%
    10:00 +19°C° 0.3 mm 1 mps 635 mmHg 57%
    11:00 +19°C° 0.3 mm 2 mps 636 mmHg 52%
    12:00 +21°C° 0.3 mm 2 mps 636 mmHg 46%
    13:00 +21°C° 0.8 mm 2 mps 635 mmHg 48%
    14:00 +20°C° 0.8 mm 2 mps 635 mmHg 49%
    15:00 +20°C° 0.8 mm 2 mps 635 mmHg 50%
    16:00 +19°C° 1 mm 3 mps 634 mmHg 59%
    17:00 +17°C° 1 mm 3 mps 634 mmHg 67%
    18:00 +16°C° 1 mm 3 mps 634 mmHg 76%
    19:00 +14°C° 0.5 mm 3 mps 634 mmHg 80%
    20:00 +13°C° 0.5 mm 3 mps 634 mmHg 84%
    21:00 +13°C° 0.5 mm 2 mps 634 mmHg 88%
    22:00 +13°C° 0.2 mm 2 mps 634 mmHg 88%
    23:00 +13°C° 0.2 mm 2 mps 634 mmHg 89%

    Day after tomorrow, 28 September, Thursday

    Time Temperature Precipitation Wind Pressure Humidity
    00:00 +12°C° 0.2 mm 2 mps 634 mmHg 89%
    01:00 +12°C° 0.2 mm 2 mps 634 mmHg 90%
    02:00 +12°C° 0.2 mm 2 mps 634 mmHg 90%
    03:00 +12°C° 0.2 mm 1 mps 634 mmHg 91%
    04:00 +11°C° 0.2 mm 1 mps 634 mmHg 91%
    05:00 +11°C° 0.2 mm 1 mps 634 mmHg 92%
    06:00 +11°C° 0.2 mm 1 mps 633 mmHg 92%
    07:00 +12°C° 0.1 mm 1 mps 634 mmHg 86%
    08:00 +13°C° 0.1 mm 1 mps 635 mmHg 79%
    09:00 +14°C° 0.1 mm 1 mps 635 mmHg 73%
    10:00 +15°C° 0.2 mm 1 mps 636 mmHg 68%
    11:00 +16°C° 0.2 mm 2 mps 636 mmHg 64%
    12:00 +17°C° 0.2 mm 2 mps 636 mmHg 59%
    13:00 +17°C° 0.5 mm 2 mps 636 mmHg 59%
    14:00 +17°C° 0.5 mm 2 mps 636 mmHg 59%
    15:00 +17°C° 0.5 mm 2 mps 636 mmHg 60%
    16:00 +16°C° 0.5 mm 3 mps 635 mmHg 67%
    17:00 +13°C° 0.5 mm 3 mps 635 mmHg 74%
    18:00 +12°C° 0.5 mm 4 mps 635 mmHg 81%
    19:00 +11°C° 0.2 mm 3 mps 635 mmHg 82%
    20:00 +11°C° 0.2 mm 3 mps 636 mmHg 84%
    21:00 +10°C° 0.2 mm 3 mps 636 mmHg 86%
    22:00 +10°C° 0.2 mm 3 mps 636 mmHg 86%
    23:00 +10°C° 0.2 mm 3 mps 636 mmHg 87%

    29 September, Friday

    Time Temperature Precipitation Wind Pressure Humidity
    00:00 +9°C° 0.2 mm 2 mps 636 mmHg 87%
    01:00 +9°C° 0.2 mm 2 mps 636 mmHg 87%
    02:00 +9°C° 0.2 mm 2 mps 636 mmHg 88%
    03:00 +9°C° 0.2 mm 2 mps 636 mmHg 89%
    04:00 +9°C° 0.1 mm 2 mps 636 mmHg 89%
    05:00 +8°C° 0.1 mm 2 mps 636 mmHg 90%
    06:00 +8°C° 0.1 mm 2 mps 636 mmHg 91%
    07:00 +9°C° 0.1 mm 2 mps 636 mmHg 86%
    08:00 +10°C° 0.1 mm 2 mps 636 mmHg 80%
    09:00 +12°C° 0.1 mm 2 mps 636 mmHg 75%
    10:00 +13°C° 0 mm 2 mps 636 mmHg 71%
    11:00 +13°C° 0 mm 3 mps 636 mmHg 67%
    12:00 +14°C° 0 mm 3 mps 636 mmHg 63%
    13:00 +14°C° 0 mm 3 mps 636 mmHg 64%
    14:00 +14°C° 0 mm 3 mps 636 mmHg 64%
    15:00 +14°C° 0 mm 3 mps 635 mmHg 65%
    16:00 +13°C° 0.1 mm 3 mps 635 mmHg 70%
    17:00 +12°C° 0.1 mm 3 mps 635 mmHg 74%
    18:00 +11°C° 0.1 mm 3 mps 635 mmHg 79%
    19:00 +10°C° 0.4 mm 3 mps 635 mmHg 81%
    20:00 +10°C° 0.4 mm 3 mps 635 mmHg 84%
    21:00 +9°C° 0.4 mm 3 mps 635 mmHg 86%
    22:00 +9°C° 0.4 mm 2 mps 635 mmHg 88%
    23:00 +8°C° 0.4 mm 2 mps 634 mmHg 89%

    30 September, Saturday

    Time Temperature Precipitation Wind Pressure Humidity
    00:00 +8°C° 0.4 mm 2 mps 634 mmHg 90%
    01:00 +8°C° 0.1 mm 2 mps 634 mmHg 90%
    02:00 +8°C° 0.1 mm 2 mps 634 mmHg 91%
    03:00 +7°C° 0.1 mm 2 mps 633 mmHg 92%
    04:00 +7°C° 0 mm 2 mps 633 mmHg 92%
    05:00 +7°C° 0 mm 2 mps 633 mmHg 93%
    06:00 +8°C° 0 mm 1 mps 633 mmHg 93%
    07:00 +9°C° 0 mm 2 mps 634 mmHg 86%
    08:00 +10°C° 0 mm 2 mps 634 mmHg 79%
    09:00 +13°C° 0 mm 2 mps 634 mmHg 72%
    10:00 +13°C° 0.2 mm 3 mps 634 mmHg 68%
    11:00 +14°C° 0.2 mm 3 mps 634 mmHg 64%
    12:00 +16°C° 0.2 mm 3 mps 634 mmHg 61%
    13:00 +16°C° 0.4 mm 3 mps 634 mmHg 60%
    14:00 +16°C° 0.4 mm 3 mps 634 mmHg 60%
    15:00 +16°C° 0.4 mm 2 mps 633 mmHg 60%
    16:00 +15°C° 0.4 mm 2 mps 633 mmHg 65%
    17:00 +14°C° 0.4 mm 2 mps 633 mmHg 70%
    18:00 +13°C° 0.4 mm 2 mps 632 mmHg 75%
    19:00 +12°C° 0.4 mm 2 mps 633 mmHg 78%
    20:00 +12°C° 0.4 mm 1 mps 633 mmHg 81%
    21:00 +11°C° 0.4 mm 1 mps 633 mmHg 84%
    22:00 +11°C° 0.2 mm 1 mps 633 mmHg 85%
    23:00 +11°C° 0.2 mm 1 mps 632 mmHg 87%

    1 October, Sunday

    Time Temperature Precipitation Wind Pressure Humidity
    00:00 +10°C° 0.2 mm 1 mps 632 mmHg 89%
    01:00 +10°C° 0.1 mm 1 mps 632 mmHg 89%
    02:00 +10°C° 0.1 mm 1 mps 632 mmHg 90%
    03:00 +9°C° 0.1 mm 1 mps 632 mmHg 91%
    04:00 +9°C° 0 mm 1 mps 633 mmHg 90%
    05:00 +9°C° 0 mm 1 mps 633 mmHg 90%
    06:00 +9°C° 0 mm 1 mps 633 mmHg 89%
    07:00 +11°C° 0 mm 1 mps 634 mmHg 81%
    08:00 +13°C° 0 mm 1 mps 634 mmHg 73%
    09:00 +15°C° 0 mm 1 mps 635 mmHg 65%
    10:00 +16°C° 0 mm 1 mps 635 mmHg 59%
    11:00 +17°C° 0 mm 2 mps 635 mmHg 54%
    12:00 +19°C° 0 mm 2 mps 635 mmHg 48%
    13:00 +19°C° 0.4 mm 2 mps 635 mmHg 48%
    14:00 +19°C° 0.4 mm 2 mps 635 mmHg 47%
    15:00 +19°C° 0.4 mm 2 mps 635 mmHg 47%
    16:00 +17°C° 0.6 mm 2 mps 634 mmHg 55%
    17:00 +16°C° 0.6 mm 2 mps 634 mmHg 62%
    18:00 +15°C° 0.6 mm 2 mps 634 mmHg 69%
    19:00 +14°C° 0.8 mm 2 mps 634 mmHg 74%
    20:00 +13°C° 0.8 mm 2 mps 634 mmHg 79%
    21:00 +13°C° 0.8 mm 2 mps 635 mmHg 83%
    22:00 +12°C° 0.7 mm 2 mps 635 mmHg 85%
    23:00 +12°C° 0.7 mm 2 mps 635 mmHg 87%
    Show more